Find OneWeb SL0374

NORAD ID: 49300 Int'l Des: 2021-090 Owner: ONEWEBN Country: UK Constellation: oneweb operational
LEOCIRCULARPOLARONEWEB_TYPE

实时位置

正在加载3D地球...

关于 OneWeb SL0374

正在加载描述...

即将过境

Passes for default location (London). Set your location on the main map for personalized predictions.

高度历史

Loading altitude history...

两行轨道根数

1 49300U 21090X 26106.61556116 .00000231 00000-0 58868-3 0 9998
2 49300 87.8929 301.9865 0001720 110.5932 249.5382 13.14503047219478
Epoch: Apr 16, 2026 • Age: 13 hours

当前状态

高度 1222.7 km
速度 7.24 km/s
星下点 -41.11°S, 44.48°E
发射日期 Oct 14, 2021
运行时间 4.5 years
类型 internet

技术详情

分类 Payload
质量 148.00 kg
干质量 140.00 kg
总质量 148.00 kg
长度 1.30 m
直径 1.00 m
跨度 5.00 m
形状 Trapezoid+2 pan
制造商 ONEWUS
平台类型 ARROW
阶段状态 In Orbit
所有者/国家 ONEWEBN/UK

Most Searched